TimeCDT,TemperatureF,Dew PointF,Humidity,Sea Level PressureIn,VisibilityMPH,Wind Direction,Wind SpeedMPH,Gust SpeedMPH,PrecipitationIn,Events,Conditions,WindDirDegrees,DateUTC
12:15 AM,74.8,71.8,90,29.97,10.0,East,5.8,-,N/A,,Overcast,80,2013-04-24 05:15:00
12:35 AM,75.2,71.8,89,29.97,10.0,ENE,4.6,-,N/A,,Overcast,60,2013-04-24 05:35:00
12:55 AM,75.2,71.8,89,29.97,10.0,East,5.8,-,N/A,,Overcast,90,2013-04-24 05:55:00
1:15 AM,75.0,71.8,90,29.97,10.0,ESE,4.6,-,N/A,,Overcast,110,2013-04-24 06:15:00
1:35 AM,74.8,71.8,90,29.96,10.0,East,9.2,-,N/A,,Overcast,100,2013-04-24 06:35:00
1:55 AM,74.7,71.8,91,29.96,10.0,East,8.1,-,N/A,,Overcast,100,2013-04-24 06:55:00
2:15 AM,74.8,72.0,91,29.97,10.0,East,4.6,-,N/A,,Overcast,80,2013-04-24 07:15:00
2:35 AM,71.2,66.2,84,29.98,10.0,North,18.4,24.2,N/A,,Overcast,360,2013-04-24 07:35:00
2:55 AM,64.9,57.2,76,29.99,10.0,North,16.1,23.0,N/A,,Overcast,10,2013-04-24 07:55:00
3:15 AM,63.9,57.9,81,30.00,10.0,North,19.6,26.5,N/A,,Overcast,360,2013-04-24 08:15:00
3:35 AM,61.2,56.8,86,30.01,10.0,North,21.9,26.5,N/A,,Overcast,10,2013-04-24 08:35:00
3:55 AM,59.0,55.6,88,30.01,7.0,North,19.6,29.9,N/A,,Overcast,10,2013-04-24 08:55:00
4:15 AM,57.4,54.9,91,30.02,7.0,North,21.9,26.5,N/A,,Overcast,360,2013-04-24 09:15:00
4:35 AM,55.8,53.8,93,30.03,5.0,North,18.4,25.3,N/A,,Overcast,10,2013-04-24 09:35:00
4:55 AM,55.0,53.2,94,30.04,4.0,North,20.7,27.6,N/A,,Overcast,360,2013-04-24 09:55:00
5:15 AM,53.8,52.2,94,30.05,5.0,North,24.2,32.2,N/A,Rain,Light Rain,10,2013-04-24 10:15:00
5:55 AM,52.5,50.7,94,30.05,10.0,North,25.3,33.4,N/A,,Overcast,10,2013-04-24 10:55:00
6:15 AM,52.5,50.5,93,30.06,10.0,North,25.3,34.5,N/A,,Overcast,10,2013-04-24 11:15:00
6:35 AM,52.0,50.0,93,30.06,10.0,North,26.5,35.7,N/A,,Overcast,10,2013-04-24 11:35:00
6:55 AM,52.0,49.8,92,30.07,10.0,North,25.3,32.2,N/A,,Overcast,10,2013-04-24 11:55:00
7:15 AM,51.6,48.9,90,30.08,10.0,North,26.5,33.4,N/A,,Overcast,10,2013-04-24 12:15:00
7:35 AM,51.3,48.2,89,30.09,10.0,North,23.0,31.1,N/A,,Overcast,10,2013-04-24 12:35:00
8:15 AM,51.8,48.2,88,30.11,10.0,North,21.9,32.2,N/A,,Overcast,10,2013-04-24 13:15:00
8:35 AM,52.5,48.7,87,30.11,10.0,North,18.4,27.6,N/A,,Overcast,10,2013-04-24 13:35:00
8:55 AM,52.9,48.4,85,30.11,10.0,NNE,25.3,29.9,N/A,,Overcast,20,2013-04-24 13:55:00
9:15 AM,53.6,48.0,81,30.12,10.0,NNE,19.6,29.9,N/A,,Overcast,20,2013-04-24 14:15:00
9:35 AM,53.8,46.9,78,30.12,10.0,NNE,21.9,32.2,N/A,,Overcast,20,2013-04-24 14:35:00
9:55 AM,53.8,46.2,76,30.13,10.0,North,18.4,29.9,N/A,,Overcast,10,2013-04-24 14:55:00
10:15 AM,54.1,46.4,75,30.14,10.0,North,20.7,27.6,N/A,,Overcast,10,2013-04-24 15:15:00
10:35 AM,54.5,46.0,73,30.15,10.0,North,19.6,26.5,N/A,,Overcast,10,2013-04-24 15:35:00
10:55 AM,54.5,45.7,72,30.15,10.0,North,20.7,26.5,N/A,,Overcast,10,2013-04-24 15:55:00
11:15 AM,54.7,45.5,71,30.16,10.0,North,17.3,23.0,N/A,,Overcast,10,2013-04-24 16:15:00
11:35 AM,54.7,45.3,71,30.17,10.0,North,16.1,-,N/A,,Overcast,10,2013-04-24 16:35:00
11:55 AM,55.0,45.5,70,30.17,10.0,North,19.6,24.2,N/A,,Overcast,10,2013-04-24 16:55:00
12:15 PM,54.9,45.7,71,30.17,10.0,NNE,17.3,21.9,N/A,,Overcast,20,2013-04-24 17:15:00
12:35 PM,54.9,45.3,70,30.16,10.0,North,17.3,23.0,N/A,,Overcast,10,2013-04-24 17:35:00
1:15 PM,55.6,45.0,67,30.17,10.0,North,13.8,-,N/A,,Overcast,360,2013-04-24 18:15:00
1:35 PM,55.0,46.4,73,30.17,7.0,North,11.5,-,N/A,Rain,Rain,10,2013-04-24 18:35:00
1:55 PM,53.8,48.0,81,30.17,7.0,North,15.0,-,0.01,,Drizzle,360,2013-04-24 18:55:00
2:15 PM,54.3,48.9,82,30.17,10.0,North,12.7,-,N/A,,Overcast,10,2013-04-24 19:15:00
2:35 PM,54.9,48.7,80,30.17,10.0,North,12.7,-,N/A,,Overcast,10,2013-04-24 19:35:00
2:55 PM,55.8,48.9,78,30.16,10.0,North,12.7,17.3,N/A,,Overcast,350,2013-04-24 19:55:00
3:15 PM,56.3,48.4,75,30.16,10.0,North,11.5,-,N/A,,Overcast,360,2013-04-24 20:15:00
3:35 PM,57.0,47.8,71,30.16,10.0,North,11.5,-,N/A,,Overcast,360,2013-04-24 20:35:00
3:55 PM,57.4,47.7,70,30.15,10.0,North,10.4,-,N/A,,Overcast,360,2013-04-24 20:55:00
4:15 PM,58.3,47.7,68,30.14,10.0,North,9.2,-,N/A,,Overcast,360,2013-04-24 21:15:00
4:35 PM,59.4,48.0,66,30.13,10.0,North,9.2,-,N/A,,Overcast,360,2013-04-24 21:35:00
4:55 PM,59.9,48.2,65,30.13,10.0,North,8.1,-,N/A,,Overcast,10,2013-04-24 21:55:00
5:15 PM,60.6,48.7,65,30.12,10.0,NNE,9.2,-,N/A,,Overcast,20,2013-04-24 22:15:00
5:35 PM,60.8,48.7,64,30.12,10.0,North,8.1,-,N/A,,Overcast,360,2013-04-24 22:35:00
5:55 PM,61.2,48.6,63,30.12,10.0,North,8.1,-,N/A,,Overcast,360,2013-04-24 22:55:00
6:15 PM,61.3,48.9,64,30.12,10.0,North,9.2,-,N/A,,Overcast,10,2013-04-24 23:15:00
6:35 PM,61.2,49.3,65,30.12,10.0,North,9.2,-,N/A,,Overcast,10,2013-04-24 23:35:00
6:55 PM,61.3,49.6,65,30.12,10.0,NNE,4.6,-,N/A,,Overcast,30,2013-04-24 23:55:00
7:15 PM,61.7,50.2,66,30.14,10.0,Calm,Calm,-,N/A,,Overcast,0,2013-04-25 00:15:00
7:35 PM,62.1,51.4,68,30.14,10.0,NNE,3.5,-,N/A,,Overcast,30,2013-04-25 00:35:00
7:55 PM,62.6,50.9,66,30.15,10.0,NNE,3.5,-,N/A,,Overcast,30,2013-04-25 00:55:00
8:15 PM,62.4,50.9,66,30.15,10.0,Calm,Calm,-,N/A,,Overcast,0,2013-04-25 01:15:00
8:35 PM,62.2,51.4,68,30.15,10.0,NE,4.6,-,N/A,,Overcast,40,2013-04-25 01:35:00
8:55 PM,62.6,51.6,67,30.15,10.0,NE,6.9,-,N/A,,Overcast,40,2013-04-25 01:55:00
10:15 PM,63.0,52.5,69,30.18,10.0,NE,6.9,-,N/A,,Overcast,40,2013-04-25 03:15:00
10:35 PM,63.3,52.9,69,30.18,10.0,North,8.1,-,N/A,,Overcast,10,2013-04-25 03:35:00
10:55 PM,63.5,53.1,69,30.18,10.0,NNE,6.9,-,N/A,,Overcast,20,2013-04-25 03:55:00
11:15 PM,63.5,54.0,71,30.18,10.0,North,3.5,-,N/A,,Overcast,360,2013-04-25 04:15:00
11:35 PM,63.5,54.7,73,30.18,10.0,North,5.8,-,N/A,,Overcast,360,2013-04-25 04:35:00
11:55 PM,63.1,53.8,71,30.19,10.0,WNW,3.5,-,N/A,,Overcast,300,2013-04-25 04:55:00